星链-31667 (STARLINK-31667 )

导读 | 星芒AI

STARLINK-31667 是 SpaceX 星链计划中的一颗低轨通信卫星,属于该计划的第三批发射任务。它运行在约 550 公里的近地轨道,旨在为全球用户提供高速互联网服务。该卫星采用可重复使用设计,配备先进推进系统和激光通信技术,以提升网络稳定性和传输效率。作为星链星座的一部分,STARLINK-31667 与其他数千颗卫星协同工作,支持偏远地区的宽带接入,并增强全球通信覆盖能力。

基本信息
目录编号:
59609
目录名称:
STARLINK-31667
国际标识:
2024-080J
轨道中心:
EARTH
卫星名称:
星链-31667
卫星全名:
星链-31667 (STARLINK-31667 )
卫星状态:
在轨 (已飞行601 天)
发射日期:
2024-04-28 UTC
国别 :
美国 (US)
星等 :
--
轨道信息
数据来源 国际轨道数据
星历时间: 2025-12-19T18:24:40+0800
15小时前
查看轨道信息
半长轴: 6861.21km
偏心率: 0.0000716
轨道倾角: 43.002°
近地点辐角 253.396°
升交点赤经 127.248°
平近点角 106.681°
近地点: 482.581km
远地点: 483.565km
周期: 94.267分钟
每日圈数: 15.275723
详细信息
固有亮度:
5
最大亮度:
1.5
卫星平台:
Starlink v2.0 mini
覆盖范围:
全球
运营商:
太空探索技术公司
运营商所在国:
美国
制造商(研发单位):
太空探索技术公司
制造商所在国:
美国
使用方式:
暂无
卫星简介
星链(Starlink)计划是由太空探索技术公司(SpaceX)提出的一个巨型低轨卫星互联网星座项目,计划在2019年至2024年间在太空搭建由约1.2万颗卫星组成的“星链”网络,其中1584颗将部署在地球上空550千米处的近地轨道,并从2020年开始工作。该卫星仍在工作。
2D轨道图
3D轨道图
轨道高度分析图
轨道倾角分析图
轨道综合分析图
查看轨道综合分析图